[[{"header":{"parameterUnit":"m.s-1","parameterCategory":1,"la1":30.2991,"la2":30.254,"lo1":-89.0895,"lo2":-89.0444,"dy":0.0017,"dx":0.0017,"nx":28,"ny":28,"refTime":"2024-05-06T21:00:00:Z","depth":0,"parameterNumber":2,"parameterNumberName":"U-component_of_WINDS"},"data":[0,0,0,0,0,0,0,0,0,0,0,0,0,0,0,0,0,0,0,0,0,0,0,0,0,0,0,0,0,0,0,0,0,0,0,0,0,0,0,0,0,0,0,0,0,0,0,0,0,0,0,0,0,0,0,0,0,0,-1.6931,-1.6931,0,-1.6953,-1.6953,-1.6954,-1.6943,-1.6942,-1.6942,-1.6941,-1.6966,-1.6967,-1.6968,0,0,0,0,0,0,0,0,0,0,0,0,0,-1.6883,-1.6884,-1.6931,-1.6931,-1.6932,-1.6953,-1.6953,-1.6954,-1.6943,-1.6942,-1.6942,-1.6941,-1.6965,-1.6967,-1.6968,0,0,0,0,0,0,0,0,0,0,0,0,0,-1.6905,-1.6884,-1.6931,-1.6929,-1.6929,-1.6953,-1.6953,-1.6954,-1.6943,-1.6942,-1.6941,-1.6941,-1.6965,-1.6967,-1.6968,-1.6997,0,0,-1.6974,-1.6975,0,0,0,0,0,0,0,0,-1.6903,-1.6906,-1.6929,-1.6929,-1.6929,-1.6944,-1.6945,-1.6968,-1.6943,-1.6938,-1.6941,-1.694,-1.6959,-1.6962,-1.6968,-1.6998,-1.6999,-1.6974,-1.6975,-1.6976,-1.6976,0,0,0,0,0,0,0,-1.6902,-1.6905,-1.694,-1.6929,-1.6929,-1.6928,-1.693,-1.695,-1.6953,-1.6938,-1.6938,-1.694,-1.6959,-1.6966,-1.6968,-1.6999,-1.6974,-1.6976,-1.6977,-1.6977,-1.7055,-1.7056,0,0,0,0,0,0,-1.69,-1.6904,-1.6939,-1.6941,-1.6914,-1.6929,-1.6932,-1.694,-1.6953,-1.6954,-1.6941,-1.694,-1.6963,-1.6966,-1.6969,-1.7004,-1.6976,-1.6977,-1.6979,-1.7054,-1.7056,-1.7057,0,0,0,0,0,0,-1.6899,-1.6903,-1.6938,-1.6922,-1.6926,-1.6931,-1.6941,-1.6941,-1.6948,-1.6955,-1.6956,-1.6947,-1.6963,-1.6967,-1.699,-1.7004,-1.6978,-1.698,-1.7053,-1.7055,-1.7056,-1.7072,0,0,0,0,0,0,-1.6898,-1.6903,-1.6913,-1.6922,-1.6927,-1.6958,-1.6942,-1.6942,-1.6951,-1.6949,-1.6961,-1.6962,-1.6962,-1.6987,-1.6992,-1.7006,-1.6981,-1.7052,-1.7054,-1.7056,-1.707,-1.7074,-1.7077,0,0,0,0,0,-1.6896,-1.6917,-1.6913,-1.6918,-1.694,-1.6959,-1.6962,-1.6961,-1.6952,-1.6962,-1.6967,-1.6961,-1.7002,-1.699,-1.6995,-1.701,-1.7051,-1.7053,-1.7055,-1.7069,-1.7073,-1.7077,0,0,0,0,0,0,-1.6909,-1.6918,-1.6914,-1.6938,-1.6948,-1.6957,-1.697,-1.6966,-1.6979,-1.6977,-1.6977,-1.698,-1.7004,-1.701,-1.6996,-1.7039,-1.7025,-1.7029,-1.7034,-1.7038,-1.7042,-1.7039,-1.6983,0,0,0,0,0,-1.6914,-1.6928,-1.6936,-1.6956,-1.6961,-1.6965,-1.6973,-1.6972,-1.6982,-1.6986,-1.6993,-1.7004,-1.7019,-1.7029,-1.7044,-1.7072,-1.7075,-1.7085,-1.7088,-1.7091,-1.7094,-1.711,-1.7115,-1.7064,-1.7064,-1.7064,0,0,-1.6926,-1.6933,-1.6941,-1.6959,-1.6966,-1.6982,-1.6968,-1.6985,-1.6997,-1.6989,-1.7012,-1.7017,-1.7029,-1.7056,-1.7068,-1.7061,-1.7109,-1.7094,-1.7096,-1.7097,-1.7113,-1.7118,-1.7122,-1.7066,-1.7065,-1.7065,0,0,-1.6955,-1.6961,-1.6979,-1.6987,-1.6998,-1.7001,-1.7005,-1.7015,-1.7019,-1.7041,-1.7036,-1.7051,-1.7077,-1.7087,-1.7095,-1.713,-1.7125,-1.7135,-1.7152,-1.7168,-1.7172,-1.7176,-1.7189,-1.7193,-1.7137,-1.7137,-1.7137,0,-1.6968,-1.699,-1.6989,-1.7006,-1.7015,-1.7009,-1.7028,-1.7036,-1.7052,-1.7059,-1.7051,-1.7085,-1.7093,-1.7121,-1.713,-1.7137,-1.7143,-1.7133,-1.7171,-1.7175,-1.7178,-1.7191,-1.7195,-1.7138,-1.7138,-1.7138,-1.7138,0,-1.7006,-1.7021,-1.7035,-1.705,-1.706,-1.7078,-1.7082,-1.7092,-1.7092,-1.7095,-1.712,-1.7129,-1.7146,-1.7153,-1.7152,-1.7182,-1.7178,-1.7171,-1.7157,-1.7184,-1.7196,-1.7201,-1.714,-1.714,-1.7139,-1.7139,0,0,-1.7041,-1.7057,-1.7062,-1.7069,-1.7082,-1.7095,-1.7114,-1.713,-1.7139,-1.7151,-1.7167,-1.7191,-1.7185,-1.7194,-1.7195,-1.7209,-1.7237,-1.7201,-1.7201,-1.7207,-1.7272,-1.7277,-1.7282,-1.7235,-1.7236,-1.7236,-1.7271,0,-1.7071,-1.7103,-1.7104,-1.7133,-1.7149,-1.7144,-1.7161,-1.7172,-1.7177,-1.7191,-1.7197,-1.7213,-1.7204,-1.721,-1.7224,-1.7231,-1.725,-1.7228,-1.7251,-1.7252,-1.7247,-1.7288,-1.7293,-1.7325,-1.7276,-1.7276,-1.7277,0,-1.711,-1.7122,-1.7153,-1.7165,-1.7172,-1.7186,-1.7202,-1.7216,-1.7228,-1.7231,-1.7242,-1.7241,-1.7262,-1.7249,-1.7278,-1.7263,-1.7273,-1.7278,-1.7279,-1.7281,-1.7265,-1.7291,-1.7335,-1.734,-1.7284,-1.7283,-1.7283,0,-1.7133,-1.7158,-1.718,-1.7186,-1.7201,-1.7211,-1.7218,-1.723,-1.724,-1.7254,-1.7261,-1.7278,-1.7287,-1.7301,-1.7305,-1.7295,-1.7335,-1.7322,-1.7338,-1.7338,-1.7346,-1.7345,-1.7393,-1.7353,-1.7353,-1.7353,-1.7353,0,-1.7166,-1.7185,-1.7191,-1.7204,-1.7226,-1.7228,-1.725,-1.7256,-1.7267,-1.7283,-1.7281,-1.7296,-1.7301,-1.7317,-1.7321,-1.7345,-1.7349,-1.7353,-1.7354,-1.7353,-1.7352,-1.7359,-1.7356,-1.7354,-1.7354,-1.7354,-1.7354,0,-1.7195,-1.7199,-1.7223,-1.7235,-1.7239,-1.7255,-1.7266,-1.7279,-1.7284,-1.7304,-1.7309,-1.7318,-1.7337,-1.7343,-1.7366,-1.7369,-1.7397,-1.7396,-1.7393,-1.7393,-1.7409,-1.7408,-1.7462,-1.7469,-1.7425,-1.7425,-1.7426,0,-1.7215,-1.723,-1.7244,-1.7254,-1.7261,-1.7277,-1.7288,-1.7291,-1.7302,-1.7319,-1.7331,-1.735,-1.7365,-1.7396,-1.7405,-1.7424,-1.7423,-1.7441,-1.7425,-1.7425,-1.7423,-1.7422,-1.7424,-1.7443,-1.7444,-1.7444,-1.7444,0,-1.7252,-1.7253,-1.7268,-1.7284,-1.7296,-1.7309,-1.7321,-1.733,-1.7336,-1.7349,-1.7368,-1.738,-1.7404,-1.7423,-1.7442,-1.7451,-1.7449,-1.7449,-1.7454,-1.7453,-1.7451,-1.7452,-1.74,-1.7448,-1.7447,-1.7447,-1.7447,-1.7447,-1.7277,-1.729,-1.7302,-1.7319,-1.7329,-1.7341,-1.7354,-1.7362,-1.7377,-1.7397,-1.7398,-1.742,-1.7434,-1.7459,-1.7469,-1.7486,-1.7481,-1.7488,-1.749,-1.7492,-1.7493,-1.7448,-1.749,-1.749,-1.749,-1.749,-1.749,0,-1.7313,-1.7321,-1.7336,-1.7354,-1.7367,-1.7364,-1.7378,-1.739,-1.7409,-1.7422,-1.7437,-1.746,-1.7479,-1.749,-1.751,-1.7522,-1.7522,-1.7527,-1.7526,-1.7528,-1.7496,-1.749,-1.7527,-1.7527,-1.7527,-1.7527,-1.7527,-1.7527,-1.7334,-1.7356,-1.7359,-1.7387,-1.7395,-1.7415,-1.7424,-1.7436,-1.7446,-1.7472,-1.7487,-1.7494,-1.7507,-1.7528,-1.7546,-1.7549,-1.7556,-1.7562,-1.7564,-1.7534,-1.753,-1.7527,-1.7521,-1.7564,-1.7564,-1.7595,-1.7595,-1.7595]},{"header":{"parameterUnit":"m.s-1","parameterCategory":1,"la1":30.2991,"la2":30.254,"lo1":-89.0895,"lo2":-89.0444,"dy":0.0017,"dx":0.0017,"nx":28,"ny":28,"refTime":"2024-05-06T21:00:00:Z","depth":0,"parameterNumber":3,"parameterNumberName":"V-component_of_WINDS"},"data":[0,0,0,0,0,0,0,0,0,0,0,0,0,0,0,0,0,0,0,0,0,0,0,0,0,0,0,0,0,0,0,0,0,0,0,0,0,0,0,0,0,0,0,0,0,0,0,0,0,0,0,0,0,0,0,0,0,0,6.0604,6.0604,0,6.0577,6.0577,6.0577,6.0561,6.0561,6.0561,6.0561,6.0529,6.0528,6.0527,0,0,0,0,0,0,0,0,0,0,0,0,0,6.0641,6.064,6.0604,6.0604,6.0604,6.0577,6.0577,6.0577,6.0561,6.0561,6.0561,6.0561,6.0529,6.0528,6.0527,0,0,0,0,0,0,0,0,0,0,0,0,0,6.062,6.064,6.0604,6.0593,6.0592,6.0577,6.0577,6.0576,6.0561,6.0561,6.0561,6.0561,6.053,6.0528,6.0527,6.0521,0,0,6.0524,6.0523,0,0,0,0,0,0,0,0,6.0621,6.0619,6.0595,6.0594,6.0592,6.0572,6.0578,6.0558,6.0561,6.0572,6.0561,6.0561,6.0543,6.0541,6.0536,6.052,6.0519,6.0524,6.0523,6.0522,6.0522,0,0,0,0,0,0,0,6.0623,6.062,6.0594,6.0595,6.0593,6.0588,6.0585,6.0574,6.0558,6.0571,6.057,6.0567,6.0542,6.0537,6.0535,6.0518,6.0524,6.0523,6.0522,6.0521,6.0498,6.0498,0,0,0,0,0,0,6.0626,6.0621,6.0594,6.0593,6.0607,6.0588,6.0584,6.0579,6.0559,6.0555,6.0567,6.0567,6.0539,6.0536,6.0534,6.0527,6.0522,6.0521,6.052,6.0498,6.0498,6.0498,0,0,0,0,0,0,6.0627,6.0624,6.0595,6.0607,6.0603,6.0587,6.0581,6.0578,6.0573,6.0556,6.0552,6.0565,6.0539,6.0536,6.0525,6.0525,6.0521,6.052,6.0498,6.0498,6.0498,6.0512,0,0,0,0,0,0,6.0628,6.0625,6.0623,6.0607,6.0602,6.0588,6.0581,6.0578,6.0571,6.057,6.0553,6.0549,6.0539,6.0527,6.0524,6.0524,6.0519,6.0497,6.0498,6.0498,6.0511,6.0512,6.0513,0,0,0,0,0,6.063,6.0626,6.0623,6.0619,6.06,6.0588,6.0585,6.0574,6.0571,6.0569,6.0558,6.055,6.0526,6.0526,6.0523,6.0522,6.0497,6.0498,6.0498,6.0511,6.0512,6.0513,0,0,0,0,0,0,6.0641,6.0624,6.062,6.0611,6.0602,6.0585,6.0582,6.0576,6.0565,6.0564,6.055,6.0546,6.0537,6.0528,6.0529,6.0516,6.0511,6.051,6.0522,6.0523,6.0524,6.0526,6.0518,0,0,0,0,0,6.0643,6.0636,6.0621,6.0615,6.0611,6.0597,6.0592,6.0584,6.0573,6.0568,6.0557,6.0545,6.0535,6.0529,6.0518,6.051,6.0506,6.0508,6.0509,6.051,6.0509,6.0506,6.0506,6.0499,6.0499,6.0499,0,0,6.0645,6.0635,6.0632,6.0617,6.0608,6.0601,6.0594,6.0586,6.058,6.0567,6.0557,6.0548,6.0534,6.0526,6.0521,6.0518,6.0511,6.051,6.0511,6.051,6.0506,6.0507,6.0507,6.0499,6.0499,6.0499,0,0,6.0647,6.0639,6.0634,6.0626,6.0614,6.0605,6.0604,6.059,6.0584,6.0575,6.0565,6.0558,6.054,6.0531,6.0525,6.0526,6.0518,6.0523,6.0528,6.0524,6.0525,6.0525,6.0526,6.0526,6.0522,6.0522,6.0522,0,6.0652,6.0641,6.0631,6.0625,6.0619,6.0608,6.0603,6.0595,6.058,6.0576,6.0573,6.0553,6.0543,6.0532,6.0533,6.0528,6.0526,6.0524,6.0526,6.0526,6.0526,6.0527,6.0527,6.0523,6.0523,6.0523,6.0523,0,6.0648,6.0641,6.0638,6.0625,6.0619,6.0613,6.0602,6.0597,6.059,6.0582,6.0573,6.0561,6.0549,6.0546,6.0539,6.0535,6.0534,6.0529,6.0523,6.0528,6.0528,6.0528,6.0524,6.0524,6.0524,6.0523,0,0,6.0654,6.0638,6.0637,6.0632,6.0619,6.0613,6.0607,6.0596,6.0592,6.0583,6.0577,6.0564,6.056,6.0552,6.0544,6.0541,6.0544,6.0537,6.0536,6.0539,6.054,6.0543,6.0544,6.0539,6.0539,6.0539,6.0541,0,6.0653,6.0643,6.0635,6.0627,6.062,6.0612,6.0606,6.0598,6.0591,6.0584,6.0575,6.0567,6.0562,6.0557,6.0554,6.0544,6.0544,6.0544,6.0533,6.0533,6.0537,6.0544,6.0547,6.0549,6.0541,6.0541,6.0541,0,6.0651,6.0644,6.0636,6.0625,6.0622,6.0618,6.0609,6.0602,6.0593,6.0588,6.0581,6.0573,6.0566,6.0562,6.0553,6.0553,6.0548,6.0543,6.0543,6.0541,6.0537,6.0542,6.055,6.055,6.0541,6.0541,6.0541,0,6.0657,6.0645,6.0639,6.0635,6.0622,6.0619,6.0614,6.0604,6.0599,6.0591,6.0587,6.0578,6.0573,6.0566,6.0556,6.0554,6.0547,6.0543,6.0543,6.0543,6.0541,6.0541,6.0548,6.0539,6.0539,6.0539,6.0539,0,6.0657,6.0652,6.0641,6.0638,6.0633,6.0624,6.0619,6.0612,6.0604,6.0599,6.0591,6.0586,6.0573,6.0567,6.0559,6.0553,6.055,6.0546,6.0544,6.0546,6.0547,6.0543,6.0542,6.0539,6.0539,6.0539,6.0539,0,6.0662,6.0654,6.0647,6.0637,6.0634,6.0631,6.0622,6.0618,6.0611,6.0605,6.0602,6.0592,6.0584,6.0574,6.0562,6.0557,6.0552,6.0549,6.0555,6.0554,6.0555,6.0555,6.0559,6.0559,6.055,6.055,6.055,0,6.0662,6.0659,6.0649,6.0645,6.0641,6.0635,6.063,6.0622,6.0617,6.0607,6.0605,6.0597,6.059,6.0578,6.0569,6.056,6.0557,6.0559,6.0555,6.0558,6.0557,6.0557,6.0557,6.0559,6.0559,6.0559,6.056,0,6.0664,6.0661,6.0655,6.0649,6.0644,6.0638,6.0632,6.0629,6.0619,6.0615,6.0608,6.0603,6.0592,6.0584,6.0575,6.0569,6.0563,6.0561,6.0561,6.0563,6.0567,6.0565,6.0558,6.0561,6.0561,6.056,6.056,6.056,6.0666,6.0664,6.0657,6.0651,6.0646,6.0641,6.0637,6.0631,6.0625,6.0617,6.0612,6.0605,6.0597,6.0585,6.0579,6.0573,6.0571,6.057,6.057,6.057,6.0571,6.0569,6.0572,6.0571,6.0571,6.0571,6.0571,0,6.0668,6.0664,6.0659,6.0651,6.0647,6.0643,6.0636,6.0633,6.0627,6.0621,6.0615,6.0607,6.0601,6.0592,6.0584,6.0582,6.0579,6.058,6.058,6.0578,6.0573,6.0575,6.0582,6.0582,6.0582,6.0582,6.0582,6.0582,6.0668,6.0663,6.066,6.0653,6.0648,6.0643,6.0639,6.0635,6.063,6.0622,6.0617,6.0612,6.0604,6.0597,6.059,6.0588,6.0585,6.0588,6.0584,6.058,6.0579,6.0578,6.0579,6.0587,6.0587,6.059,6.059,6.059]}]]